EW4785 Weather Reports


time (UTC)temp
C
wind
direction
speed
KPH
gust
KPH
rain 1hr
cm
rain 24hr
cm
rain mn
cm
humidity
%
barometer
mb
20260906124533 22 264 0.0 3.2 0.00 0.38 0.00 99 1013.0
20260906123028 21 264 0.0 1.6 0.00 0.38 0.00 98 1012.9
20260906121525 21 264 0.0 0.0 0.00 0.38 0.00 99 1012.8
20260906120022 21 264 0.0 1.6 0.00 0.38 0.00 98 1012.8
20260906114522 21 264 0.0 0.0 0.00 0.38 0.00 98 1012.7
20260906113021 21 264 0.0 0.0 0.00 0.38 0.00 98 1012.7
20260906111519 21 264 0.0 0.0 0.00 0.38 0.00 98 1012.6
20260906110018 21 264 0.0 0.0 0.00 0.38 0.00 98 1012.5
20260906104518 21 264 0.0 0.0 0.00 0.38 0.00 98 1012.4
20260906103016 21 264 0.0 0.0 0.00 0.38 0.00 98 1012.2
20260906101511 21 264 0.0 0.0 0.00 0.38 0.00 98 1011.9
20260906100008 21 264 0.0 0.0 0.00 0.38 0.00 98 1011.9
20260906094503 21 264 0.0 0.0 0.00 0.38 0.00 98 1011.6
20260906093100 21 264 0.0 0.0 0.00 0.38 0.00 98 1011.4
20260906091555 21 264 0.0 1.6 0.00 0.38 0.00 98 1011.4
20260906090049 21 261 0.0 0.0 0.00 0.38 0.00 98 1011.2
20260906084552 21 261 0.0 1.6 0.00 0.38 0.00 98 1010.9
20260906083145 21 261 0.0 1.6 0.00 0.38 0.00 98 1010.9
20260906081546 21 261 0.0 0.0 0.00 0.38 0.00 98 1010.9
20260906080053 20 261 0.0 0.0 0.00 0.38 0.00 98 1010.9
20260906074544 20 261 0.0 0.0 0.00 0.38 0.00 98 1010.8
20260906073043 20 261 0.0 0.0 0.00 0.38 0.00 98 1010.6
20260906071541 20 261 0.0 1.6 0.00 0.38 0.00 98 1010.5
20260906070040 20 261 0.0 0.0 0.00 0.38 0.00 98 1010.6
20260906064539 20 261 0.0 0.0 0.00 0.38 0.00 97 1010.7
20260906063038 20 261 0.0 0.0 0.00 0.38 0.00 97 1011.0
20260906061539 20 261 0.0 0.0 0.00 0.38 0.00 98 1011.0
20260906060037 20 261 0.0 0.0 0.00 0.38 0.00 98 1010.9
20260906054533 20 261 0.0 0.0 0.00 0.43 0.00 97 1011.0
20260906053031 21 261 0.0 0.0 0.00 0.43 0.00 97 1011.2
20260906051529 21 261 0.0 0.0 0.00 0.43 0.00 97 1011.3
20260906050029 21 262 0.0 0.0 0.00 0.43 0.00 97 1011.4
20260906044527 21 262 0.0 0.0 0.00 0.43 0.00 97 1011.5
20260906043025 21 262 0.0 0.0 0.00 0.43 0.00 97 1011.7
20260906041535 21 262 0.0 0.0 0.00 0.43 0.00 97 1011.8
20260906040022 21 262 0.0 0.0 0.00 0.43 0.00 97 1011.9
20260906034526 21 262 0.0 0.0 0.00 0.43 0.43 97 1011.8
20260906033020 21 262 0.0 0.0 0.00 0.43 0.43 97 1011.8
20260906031519 21 262 0.0 0.0 0.00 0.43 0.43 97 1011.8
20260906030019 21 262 0.0 0.0 0.00 0.43 0.43 96 1011.8
20260906024519 21 262 0.0 0.0 0.00 0.43 0.43 97 1011.5
20260906023019 21 263 0.0 0.0 0.00 0.43 0.43 97 1011.6
20260906021518 21 263 0.0 0.0 0.00 0.43 0.43 96 1011.4
20260906020018 21 263 0.0 0.0 0.00 0.43 0.43 96 1011.3
20260906014522 22 263 0.0 0.0 0.00 0.43 0.43 95 1011.3
20260906013017 22 263 0.0 0.0 0.00 0.43 0.43 95 1011.2
20260906011516 22 263 0.0 0.0 0.00 0.43 0.43 95 1010.9
20260906010016 22 263 0.0 0.0 0.00 0.43 0.43 95 1010.7
20260906004516 22 263 0.0 0.0 0.00 0.43 0.43 94 1010.6
20260906003015 22 263 0.0 0.0 0.00 0.43 0.43 93 1010.5
20260906001514 23 263 0.0 0.0 0.00 0.43 0.43 92 1010.3
20260906000014 23 263 0.0 0.0 0.00 0.43 0.43 91 1010.2
20260905234514 23 263 0.0 0.0 0.00 0.48 0.43 89 1010.2
20260905233013 24 263 0.0 0.0 0.00 0.48 0.43 88 1010.0
20260905231513 24 263 0.0 4.8 0.00 0.48 0.43 87 1010.1
20260905230012 25 263 0.0 3.2 0.00 0.48 0.43 86 1009.7
20260905224518 25 263 0.0 4.8 0.00 1.02 0.43 85 1009.5
20260905223011 26 172 0.0 3.2 0.00 1.02 0.43 87 1009.7
20260905221528 26 172 0.0 1.6 0.00 1.02 0.43 87 1010.1
20260905220010 25 172 0.0 6.4 0.00 1.02 0.43 88 1010.2
20260905214512 25 166 0.0 8.0 0.00 1.02 0.43 90 1010.1
20260905213009 23 159 0.0 1.6 0.00 1.02 0.43 95 1010.3
20260905211509 23 132 0.0 0.0 0.00 1.02 0.43 97 1010.3
20260905210009 23 132 0.0 1.6 0.00 1.02 0.43 96 1010.3
20260905204508 22 132 0.0 0.0 0.00 1.02 0.43 96 1010.3
20260905203008 22 132 0.0 0.0 0.00 1.02 0.43 95 1010.4
20260905201513 22 132 0.0 1.6 0.00 1.02 0.43 95 1009.9
20260905200007 22 132 0.0 1.6 0.38 1.02 0.43 94 1009.6
20260905194507 22 34 0.0 3.2 0.38 1.02 0.43 93 1010.1
20260905193010 22 16 0.0 1.6 0.38 1.02 0.43 90 1010.3
20260905191505 24 75 0.0 16.1 0.38 1.02 0.43 84 1009.9
20260905190004 29 19 3.2 14.5 0.00 0.64 0.05 70 1010.4
20260905184502 32 286 0.0 1.6 0.00 0.64 0.05 66 1009.6
20260905183101 33 286 0.0 3.2 0.00 0.64 0.05 62 1009.9
20260905181559 33 286 0.0 3.2 0.00 0.64 0.05 58 1010.0
20260905180057 33 286 0.0 3.2 0.00 0.64 0.05 57 1010.3
20260905174558 33 217 0.0 1.6 0.00 0.64 0.05 60 1010.7
20260905173050 33 32 0.0 3.2 0.00 0.64 0.05 63 1011.2
20260905171548 33 61 0.0 4.8 0.00 0.64 0.05 65 1011.4
20260905170047 33 246 0.0 3.2 0.00 0.64 0.05 66 1011.5
20260905164546 33 246 0.0 6.4 0.00 0.64 0.05 64 1011.6
20260905163040 32 70 0.0 4.8 0.00 0.64 0.05 63 1011.8
20260905161537 32 140 0.0 4.8 0.00 0.64 0.05 69 1012.0
20260905160035 31 207 0.0 6.4 0.00 0.64 0.05 70 1012.1
20260905154531 31 234 3.2 6.4 0.00 0.64 0.05 69 1012.2
20260905153029 31 239 1.6 6.4 0.00 0.64 0.05 70 1012.3
20260905151525 30 197 0.0 4.8 0.00 0.64 0.05 72 1012.5
20260905150022 29 274 0.0 4.8 0.00 0.64 0.05 77 1012.4
20260905144520 28 257 1.6 6.4 0.00 0.64 0.05 77 1012.4
20260905143021 28 162 0.0 8.0 0.00 0.64 0.05 79 1012.5
20260905141511 27 247 0.0 8.0 0.00 0.64 0.05 79 1012.4
20260905140008 27 248 0.0 4.8 0.00 0.64 0.05 83 1012.3
20260905134504 26 159 0.0 8.0 0.00 0.64 0.05 86 1012.4
20260905133059 24 227 0.0 6.4 0.00 0.64 0.05 92 1012.3
20260905131612 23 189 1.6 6.4 0.00 0.64 0.05 96 1012.5
20260905130050 22 153 0.0 3.2 0.00 0.64 0.05 98 1012.5